World > North America > United States > Texas > Nolanville  

Nolanville, TX Hourly Weather Updates

Feedback E-mail the Weather

Quick Clicks

Nolanville, TX Weather Maps

°F °C°F °C
Nolanville Weather Map
UTC Time: 6/14/2024, 15:08
Your Time:

Nolanville, TX Regional Weather

Expires:202406141600;;006030
ASUS44 KSJT 141505
RWRSJT
WEST CENTRAL TEXAS REGIONAL WEATHER ROUNDUP
NATIONAL WEATHER SERVICE SAN ANGELO TX
1000 AM CDT FRI JUN 14 2024

NOTE: "FAIR" INDICATES FEW OR NO CLOUDS BELOW 12,000 FEET WITH NO
SIGNIFICANT WEATHER AND/OR OBSTRUCTIONS TO VISIBILITY.


TXZ145-158-159-173-191-192-194-205-207-220-223-141600-
CENTRAL AND SOUTH CENTRAL TEXAS
  
CITY           SKY/WX    TMP DP  RH WIND       PRES   REMARKS
AUSTIN/BERGSTM MOSUNNY   86  75  69 S8        29.97F TC  30           
WACO           SUNNY     85  75  72 SW5       29.99S TC  29           
HILLSBORO      SUNNY     86  74  68 S3        30.01R TC  30           
TEMPLE         SUNNY     86  75  69 S5        30.00S TC  30           
KILLEEN-GRAY   SUNNY     85  75  71 SE8       30.00R TC  29           
FORT HOOD      SUNNY     85  73  66 S6        29.99S TC  30           
GEORGETOWN       N/A     85  72  65 VRB7      30.01S TC  29           
LAGO VISTA     MOSUNNY   82  74  76 SW3       30.04F TC  28           
SAN MARCOS     PTSUNNY   85  77  77 SW5       29.99F TC  29           
NEW BRAUNFELS  PTSUNNY   85  76  74 S5        29.97S TC  29           
RANDOLPH AFB   MOSUNNY   84  73  69 S3        29.95S TC  29           
SAN ANTONIO    MOSUNNY   85  73  67 SE8       29.99S TC  29           
STINSON        SUNNY     86  73  65 SE3       29.96S TC  30           
PLEASANTON     NOT AVBL                                               
LA GRANGE      MOSUNNY   84  81  91 CALM      29.96S TC  29           
GIDDINGS       MOSUNNY   84  75  74 MISG      30.01F TC  29           
$$


SKY/WX - Weather  TMP - Temperature  DP - Dew Point  RH - Humidity
WIND - Wind Direction/Speed PRES - Barometric Pressure VSB - Visibility
WCI - Wind Chill Index E13G22 Wind - East Wind 13 mph/Gusts of 22 mph

Trending Headlines

Trending Entertainment Headlines

Nolanville Radar Loop

Use the map search tool if you want to place a location marker on the radar map...

Nolanville Quick Facts

National Two Day Weather Forecast


E-mail the Nolanville Weather Forecast

Voice your opinion or tell us about page issues...